CW5066 Weather Reports


Display with metric or nautical units.
time (UTC)temp
F
wind
direction
speed
MPH
gust
MPH
rain 1hr
in
rain 24hr
in
rain mn
in
humidity
%
barometer
mb
20260502201517 56 135 2.0 11.0 0.00 0.01 0.00 28 1027.1
20260502200517 54 158 3.0 8.0 0.00 0.01 0.00 28 1026.5
20260502195517 54 158 3.0 9.0 0.00 0.02 0.00 25 1026.5
20260502194516 52 135 2.0 9.0 0.00 0.02 0.00 29 1026.1
20260502193516 51 0 4.0 9.0 0.00 0.04 0.00 23 1026.0
20260502192516 51 0 1.0 4.0 0.00 0.05 0.00 22 1026.0
20260502191516 52 0.0 2.0 0.00 0.06 0.00 22 1026.2
20260502190517 51 248 1.0 2.0 0.00 0.08 0.00 22 1026.6
20260502185537 50 338 1.0 3.0 0.00 0.09 0.00 22 1025.9
20260502184517 50 68 2.0 5.0 0.00 0.11 0.00 24 1026.7
20260502183516 49 293 1.0 4.0 0.00 0.13 0.00 26 1026.1
20260502182516 50 203 2.0 5.0 0.00 0.15 0.00 30 1027.2
20260502181516 49 158 3.0 8.0 0.00 0.17 0.00 30 1026.7
20260502180516 49 270 1.0 4.0 0.00 0.19 0.00 27 1026.2
20260502170516 45 225 2.0 6.0 0.00 0.30 0.00 29 1026.5
20260502163516 43 0.0 2.0 0.00 0.31 0.00 30 1025.9
20260502162536 42 338 2.0 6.0 0.00 0.31 0.00 29 1026.0
20260502161516 42 0.0 2.0 0.00 0.31 0.00 30 1026.7
20260502160516 41 270 3.0 7.0 0.00 0.31 0.00 29 1025.9
20260502151516 39 0.0 3.0 0.00 0.31 0.00 37 1025.7
20260502150516 38 0 1.0 5.0 0.00 0.31 0.00 38 1025.0
20260502130515 30 293 2.0 3.0 0.00 0.33 0.00 52 1024.4
20260502123535 30 293 1.0 3.0 0.00 0.33 0.00 53 1024.3
20260502122515 30 293 3.0 4.0 0.00 0.33 0.00 54 1024.3
20260502121516 31 0.0 0.0 0.00 0.33 0.00 51 1024.8
20260502120515 32 68 1.0 3.0 0.00 0.33 0.00 48 1025.5
20260502115535 32 90 1.0 4.0 0.00 0.33 0.00 47 1025.4
20260502114515 32 68 3.0 7.0 0.00 0.33 0.00 48 1024.8
20260502113515 31 203 1.0 6.0 0.00 0.33 0.00 51 1024.1
20260502112515 30 0.0 2.0 0.00 0.33 0.00 53 1024.2
20260502111535 30 270 1.0 3.0 0.00 0.33 0.00 54 1024.9
20260502110515 30 270 1.0 3.0 0.00 0.33 0.00 53 1024.9
20260502105515 31 270 1.0 3.0 0.00 0.33 0.00 52 1024.9
20260502104515 31 0.0 0.0 0.00 0.33 0.00 52 1026.2
20260502103517 31 270 1.0 2.0 0.00 0.33 0.00 52 1026.3
20260502102517 31 0.0 2.0 0.00 0.33 0.00 53 1026.4
20260502101518 31 270 1.0 2.0 0.00 0.33 0.00 52 1027.1
20260502100517 31 0.0 1.0 0.00 0.33 0.00 53 1027.1
20260502091517 30 270 2.0 3.0 0.00 0.33 0.00 55 1026.3
20260502090537 30 270 3.0 4.0 0.00 0.33 0.00 54 1026.4
20260502071516 31 248 2.0 3.0 0.00 0.33 0.00 55 1025.9
20260502070637 31 248 2.0 2.0 0.00 0.33 0.00 55 1026.1
20260502065536 31 0.0 0.0 0.00 0.33 0.00 56 1026.1
20260502064516 31 0.0 0.0 0.00 0.33 0.00 56 1025.5
20260502063516 32 0.0 0.0 0.00 0.33 0.00 56 1026.3
20260502062517 32 248 1.0 2.0 0.00 0.33 0.00 53 1026.2
20260502061536 31 225 2.0 3.0 0.00 0.33 0.00 58 1025.8
20260502060516 31 0.0 0.0 0.00 0.33 0.00 57 1025.9
20260502055517 31 0.0 0.0 0.00 0.33 0.33 57 1026.0
20260502054517 31 225 1.0 2.0 0.00 0.33 0.33 61 1026.6
20260502053517 31 225 2.0 3.0 0.00 0.33 0.33 62 1025.9
20260502052517 31 225 1.0 3.0 0.00 0.33 0.33 64 1025.8
20260502051517 31 225 1.0 3.0 0.00 0.33 0.33 65 1024.5
20260502050517 31 225 1.0 2.0 0.00 0.33 0.33 65 1024.4
20260502045517 31 225 1.0 3.0 0.00 0.33 0.33 64 1024.4
20260502044517 31 225 1.0 2.0 0.00 0.33 0.33 63 1023.7
20260502043517 32 248 1.0 2.0 0.00 0.33 0.33 60 1024.2
20260502042517 32 0.0 0.0 0.00 0.33 0.33 59 1024.1
20260502041517 33 0.0 0.0 0.00 0.33 0.33 54 1024.1
20260502040517 33 0.0 0.0 0.00 0.33 0.33 58 1024.2
20260502035517 34 0.0 0.0 0.00 0.33 0.33 58 1024.7
20260502034517 34 0.0 0.0 0.00 0.33 0.33 59 1024.7
20260502033517 34 0.0 0.0 0.00 0.33 0.33 60 1024.6
20260502032517 34 0.0 2.0 0.00 0.33 0.33 61 1024.6
20260502031517 33 0.0 2.0 0.00 0.33 0.33 62 1023.3
20260502030517 33 0.0 0.0 0.00 0.33 0.33 63 1023.2
20260502025537 33 0.0 0.0 0.00 0.33 0.33 65 1023.2
20260502024516 34 0.0 2.0 0.00 0.33 0.33 66 1022.2
20260502023517 34 0.0 2.0 0.00 0.33 0.33 66 1022.3
20260502022517 34 0.0 0.0 0.00 0.33 0.33 66 1022.1
20260502021517 35 0.0 0.0 0.00 0.33 0.33 64 1022.1
20260502020536 35 0.0 2.0 0.00 0.33 0.33 63 1022.3
20260502015516 36 315 2.0 4.0 0.00 0.33 0.33 62 1022.3
20260502014516 37 338 1.0 3.0 0.00 0.33 0.33 58 1022.2
20260502013517 38 0.0 0.0 0.00 0.33 0.33 57 1022.9
20260502012536 38 315 1.0 3.0 0.00 0.33 0.33 57 1022.8
20260502011516 38 315 2.0 5.0 0.00 0.33 0.33 59 1022.6
20260502010516 38 293 3.0 7.0 0.00 0.33 0.33 60 1022.6
20260502005516 39 338 3.0 8.0 0.00 0.33 0.33 52 1022.5
20260502004516 39 270 1.0 4.0 0.00 0.33 0.33 48 1022.3
20260502003516 39 0.0 2.0 0.00 0.33 0.33 48 1022.4
20260502002516 39 0.0 2.0 0.00 0.33 0.33 52 1022.5
20260502001516 40 0.0 2.0 0.00 0.33 0.33 48 1023.1
20260502000516 40 0.0 1.0 0.00 0.33 0.33 49 1023.2
20260501235517 40 0.0 1.0 0.00 0.33 0.33 50 1023.3
20260501234517 41 203 1.0 5.0 0.00 0.34 0.33 45 1023.1
20260501233516 40 0.0 0.0 0.00 0.34 0.33 48 1023.1
20260501232516 39 0.0 0.0 0.00 0.34 0.33 49 1022.6
20260501231517 39 0.0 1.0 0.00 0.34 0.33 49 1021.9
20260501230516 39 0.0 1.0 0.00 0.35 0.33 47 1022.4
20260501225516 40 135 3.0 13.0 0.00 0.35 0.33 50 1022.3
20260501224536 42 0.0 2.0 0.00 0.36 0.33 51 1023.7
20260501223516 43 203 2.0 6.0 0.00 0.36 0.33 46 1023.5
20260501222516 44 158 3.0 9.0 0.00 0.37 0.33 46 1024.0
20260501221516 46 203 1.0 6.0 0.00 0.37 0.33 42 1024.1
20260501220516 45 158 1.0 7.0 0.00 0.38 0.33 43 1024.2
20260501215516 46 180 1.0 5.0 0.00 0.39 0.33 50 1024.3
20260501214536 45 180 3.0 11.0 0.00 0.39 0.33 49 1023.8
20260501213516 44 135 4.0 10.0 0.00 0.40 0.33 47 1023.9
20260501212516 45 135 1.0 3.0 0.00 0.41 0.33 44 1024.5
20260501211516 45 180 2.0 7.0 0.01 0.41 0.33 49 1024.1
20260501210515 45 158 3.0 8.0 0.01 0.42 0.33 49 1024.5
20260501205516 45 180 4.0 10.0 0.02 0.42 0.33 54 1024.5
20260501204536 44 180 1.0 3.0 0.02 0.43 0.33 49 1024.5
20260501203515 44 158 2.0 9.0 0.04 0.44 0.33 44 1024.5
20260501202535 43 135 2.0 9.0 0.05 0.44 0.33 52 1024.7